Airfield :
LOGIN :

Register | Disclaimer

   EN    FR    IT 

 










Legend :    VFR   Marginal VFR   IFR   Intensive IFR   Very Intensive IFR
Visi :
Ceiling :
>= 8 km
>= 3000ft
5 to 8 km
1000 to 3000 ft
1500m to 5 km
500 to 1000 ft
800 to 1500m
200 to 500 ft
< 800m
< 200 ft
Symbols :   Thunderstorms  Fog  Heavy snow  Heavy precipitations  Wind > 20 kt
SIGMETs :     Misc.  Thunderstorms  Icing  Turbulence  Mountain Waves  Volcanic Ashes






- Airport Elevation : 156 ft
- IATA code : LCC


LIBN - Lecce Galatine (military)

CURRENT METAR :
  • 280255Z 26005KT CAVOK 04/04 Q1018 RMK SKC VIS MIN 9999 WIND THR14 23003KT WIND THR32 25004KT BLU

EXPIRED METARs :
  • 280155Z 25005KT CAVOK 04/04 Q1018 RMK SKC VIS MIN 9999 WIND THR14 25003KT WIND THR32 26004KT BLU
  • 272155Z 32004KT CAVOK 06/05 Q1018 RMK SKC VIS MIN 9999 WIND THR14 32003KT WIND THR32 33005KT BLU
  • 280055Z 32004KT CAVOK 05/04 Q1018 RMK SKC VIS MIN 9999 WIND THR14 32003KT WIND THR32 32004KT BLU

Expired Forecast.



MET'MAP, your aeronautical weather chart ! - Copyright ORBIFLY December 2007 - Disclaimer

ORBIFLY MET'MAP TEAM :

Programming & Development : Alexandra Zaïnal
Original concept : Baudouin d'Aumeries
Technical & hardware support : Manuel Goepfert
Assistance : Marc-Olivier Méhu




SOURCES & CREDITS :

   NOAA